Weather History for KMJQ - November, 2012

Change the Weather History Date:

Thursday, November 8, 2012

  Actual Average Record
Temperature  
Mean Temperature 46 °F -  
Max Temperature 57 °F 43 °F 78 °F (1999)
Min Temperature 35 °F 27 °F 3 °F (2003)
Degree Days  
Heating Degree Days 19    
Moisture  
Dew Point 33 °F    
Average Humidity 70    
Maximum Humidity 93    
Minimum Humidity 38    
Precipitation  
Precipitation 0.00 in - - ()
Sea Level Pressure  
Sea Level Pressure 29.93 in    
Wind  
Wind Speed 13 mph (SW)    
Max Wind Speed 22 mph    
Max Gust Speed 28 mph    
Visibility 9 miles    
Events      
Averages and records for this station are not official NWS values.
T = Trace of Precipitation, MM = Missing Value Source: NWS Daily Summary

Daily Weather History Graph

Daily Weather History Graph

Search for Another Location

Airport or City:

Trip Planner

Search our weather history database for the weather conditions in past years. The results will help you decide how hot, cold, wet, or windy it might be!

Date:

Astronomy

Nov. 08, 2012 Rise Set
Actual Time 7:05 AM CST 5:01 PM CST
Civil Twilight 6:35 AM CST 5:31 PM CST
Nautical Twilight 6:00 AM CST 6:06 PM CST
Astronomical Twilight 5:27 AM CST 6:39 PM CST
Moon 12:51 AM CST (11/8) 1:52 PM CST (11/8)
Length of Visible Light 10h 56m
Length of Day
9h 55m
Waning Crescent, 32% of the Moon is Illuminated
Nov 8
Waning Crescent
Nov 13
New
Nov 20
First Quarter
Nov 28
Full
Dec 6
Last Quarter

Hourly Weather History & Observations

Time (CST) Temp. Windchill Dew Point Humidity Pressure Visibility Wind Dir Wind Speed Gust Speed Precip Events Conditions
12:14 AM 37.4 °F 28.2 °F 32.0 °F 81% 30.00 in 10.0 mi South 16.1 mph 21.9 mph N/A   Clear
12:33 AM 35.6 °F 25.5 °F 32.0 °F 87% 29.99 in 10.0 mi SSE 17.3 mph 20.7 mph N/A   Clear
1:13 AM 35.6 °F 26.2 °F 32.0 °F 87% 29.98 in 10.0 mi South 15.0 mph 20.7 mph N/A   Clear
1:33 AM 35.6 °F 26.2 °F 32.0 °F 87% 29.98 in 10.0 mi South 15.0 mph 20.7 mph N/A   Clear
1:53 AM 35.6 °F 25.9 °F 32.0 °F 87% 29.97 in 10.0 mi SSE 16.1 mph 20.7 mph N/A   Clear
2:13 AM 35.6 °F 26.2 °F 32.0 °F 87% 29.97 in 10.0 mi South 15.0 mph 19.6 mph N/A   Clear
2:33 AM 35.6 °F 26.6 °F 32.0 °F 87% 29.96 in 10.0 mi South 13.8 mph - N/A   Clear
2:53 AM 35.6 °F 25.9 °F 32.0 °F 87% 29.96 in 10.0 mi South 16.1 mph - N/A   Clear
3:13 AM 35.6 °F 25.9 °F 32.0 °F 87% 29.95 in 10.0 mi South 16.1 mph 21.9 mph N/A   Clear
3:33 AM 35.6 °F 25.9 °F 32.0 °F 87% 29.94 in 10.0 mi South 16.1 mph - N/A   Clear
3:53 AM 35.6 °F 26.2 °F 32.0 °F 87% 29.94 in 10.0 mi South 15.0 mph 20.7 mph N/A   Clear
4:13 AM 35.6 °F 26.6 °F 32.0 °F 87% 29.93 in 10.0 mi South 13.8 mph 18.4 mph N/A   Clear
4:33 AM 35.6 °F 26.6 °F 32.0 °F 87% 29.92 in 10.0 mi South 13.8 mph 18.4 mph N/A   Clear
4:53 AM 35.6 °F 24.5 °F 32.0 °F 87% 29.91 in 10.0 mi South 20.7 mph 24.2 mph N/A   Clear
5:13 AM 35.6 °F 25.2 °F 32.0 °F 87% 29.90 in 10.0 mi South 18.4 mph - N/A   Clear
5:33 AM 35.6 °F 24.8 °F 32.0 °F 87% 29.90 in 10.0 mi South 19.6 mph 24.2 mph N/A   Clear
5:53 AM 35.6 °F 25.5 °F 32.0 °F 87% 29.89 in 10.0 mi South 17.3 mph 24.2 mph N/A   Clear
6:13 AM 37.4 °F 27.8 °F 32.0 °F 81% 29.89 in 10.0 mi South 17.3 mph 23.0 mph N/A   Clear
6:53 AM 37.4 °F 26.6 °F 32.0 °F 81% 29.88 in 10.0 mi South 21.9 mph 27.6 mph N/A   Clear
7:13 AM 37.4 °F 26.9 °F 32.0 °F 81% 29.89 in 10.0 mi South 20.7 mph 27.6 mph N/A   Clear
7:34 AM 37.4 °F 27.5 °F 32.0 °F 81% 29.90 in 10.0 mi South 18.4 mph 24.2 mph N/A   Clear
7:53 AM 37.4 °F 28.5 °F 32.0 °F 81% 29.91 in 10.0 mi South 15.0 mph 20.7 mph N/A   Clear
8:14 AM 39.2 °F 30.5 °F 32.0 °F 75% 29.91 in 10.0 mi South 16.1 mph 21.9 mph N/A   Clear
8:33 AM 41.0 °F 32.5 °F 32.0 °F 70% 29.91 in 10.0 mi South 17.3 mph 25.3 mph N/A   Clear
8:53 AM 42.8 °F 34.8 °F 32.0 °F 66% 29.91 in 10.0 mi South 17.3 mph 23.0 mph N/A   Clear
9:14 AM 42.8 °F 35.4 °F 32.0 °F 66% 29.92 in 10.0 mi South 15.0 mph - N/A   Clear
9:33 AM 44.6 °F 37.2 °F 33.8 °F 66% 29.92 in 10.0 mi SSW 17.3 mph 23.0 mph N/A   Clear
9:53 AM 46.4 °F 39.5 °F 33.8 °F 62% 29.92 in 10.0 mi SSW 17.3 mph 26.5 mph N/A   Clear
10:33 AM 48.2 °F - 33.8 °F 58% 29.93 in 10.0 mi SSW 11.5 mph - N/A   Clear
10:53 AM 50.0 °F - 33.8 °F 54% 29.93 in 10.0 mi SW 12.7 mph - N/A   Clear
11:13 AM 51.8 °F - 33.8 °F 50% 29.93 in 10.0 mi WSW 16.1 mph 20.7 mph N/A   Clear
11:33 AM 53.6 °F - 33.8 °F 47% 29.92 in 10.0 mi SW 15.0 mph - N/A   Clear
11:53 AM 53.6 °F - 32.0 °F 44% 29.91 in 10.0 mi West 16.1 mph 20.7 mph N/A   Clear
12:13 PM 53.6 °F - 32.0 °F 44% 29.91 in 10.0 mi WNW 13.8 mph - N/A   Clear
12:33 PM 53.6 °F - 32.0 °F 44% 29.90 in 10.0 mi WSW 13.8 mph - N/A   Clear
12:53 PM 55.4 °F - 32.0 °F 41% 29.90 in 10.0 mi SW 8.1 mph - N/A   Clear
1:13 PM 55.4 °F - 32.0 °F 41% 29.90 in 10.0 mi WSW 5.8 mph - N/A   Clear
1:33 PM 55.4 °F - 32.0 °F 41% 29.90 in 10.0 mi SW 5.8 mph - N/A   Clear
1:53 PM 55.4 °F - 32.0 °F 41% 29.90 in 10.0 mi WSW 6.9 mph - N/A   Clear
2:13 PM 57.2 °F - 32.0 °F 38% 29.90 in 10.0 mi SW 5.8 mph - N/A   Clear
2:33 PM 57.2 °F - 32.0 °F 38% 29.90 in 10.0 mi Calm Calm - N/A   Clear
2:53 PM 57.2 °F - 32.0 °F 38% 29.90 in 10.0 mi WSW 4.6 mph - N/A   Clear
3:13 PM 57.2 °F - 32.0 °F 38% 29.90 in 10.0 mi Calm Calm - N/A   Clear
3:33 PM 57.2 °F - 32.0 °F 38% 29.91 in 10.0 mi Calm Calm - N/A   Clear
3:53 PM 55.4 °F - 32.0 °F 41% 29.91 in 10.0 mi Calm Calm - N/A   Clear
4:13 PM 55.4 °F - 32.0 °F 41% 29.91 in 10.0 mi Calm Calm - N/A   Clear
4:33 PM 53.6 °F - 35.6 °F 51% 29.92 in 10.0 mi North 3.5 mph - N/A   Clear
4:53 PM 50.0 °F - 35.6 °F 58% 29.92 in 10.0 mi North 5.8 mph - N/A   Clear
5:13 PM 46.4 °F 45.2 °F 35.6 °F 66% 29.93 in 10.0 mi North 3.5 mph - N/A   Clear
5:33 PM 46.4 °F 43.5 °F 33.8 °F 62% 29.93 in 10.0 mi North 5.8 mph - N/A   Clear
5:53 PM 44.6 °F 40.7 °F 33.8 °F 66% 29.94 in 10.0 mi North 6.9 mph - N/A   Clear
6:13 PM 44.6 °F 40.2 °F 33.8 °F 66% 29.94 in 10.0 mi North 8.1 mph - N/A   Clear
6:33 PM 42.8 °F 38.6 °F 33.8 °F 70% 29.95 in 10.0 mi North 6.9 mph - N/A   Clear
6:53 PM 42.8 °F 38.6 °F 33.8 °F 70% 29.95 in 10.0 mi North 6.9 mph - N/A   Clear
7:13 PM 41.0 °F 36.4 °F 33.8 °F 76% 29.95 in 10.0 mi NNE 6.9 mph - N/A   Clear
7:33 PM 41.0 °F 36.4 °F 33.8 °F 76% 29.95 in 10.0 mi NNE 6.9 mph - N/A   Clear
7:53 PM 41.0 °F 35.8 °F 33.8 °F 76% 29.95 in 10.0 mi NNE 8.1 mph - N/A   Clear
8:14 PM 41.0 °F 35.8 °F 33.8 °F 76% 29.95 in 7.0 mi North 8.1 mph - N/A   Clear
8:33 PM 39.2 °F 33.6 °F 33.8 °F 81% - 10.0 mi North 8.1 mph - N/A   Clear
8:53 PM 39.2 °F 33.6 °F 35.6 °F 87% 29.96 in 10.0 mi North 8.1 mph - N/A   Clear
9:14 PM 39.2 °F 32.5 °F 35.6 °F 87% 29.96 in 7.0 mi North 10.4 mph - N/A   Clear
9:33 PM 37.4 °F 31.4 °F 33.8 °F 87% 29.96 in 7.0 mi North 8.1 mph - N/A   Clear
9:53 PM 37.4 °F 32.1 °F 33.8 °F 87% 29.96 in 7.0 mi North 6.9 mph - N/A   Clear
10:13 PM 37.4 °F 33.8 °F 33.8 °F 87% 29.96 in 7.0 mi North 4.6 mph - N/A   Clear
10:33 PM 35.6 °F 31.7 °F 33.8 °F 93% 29.97 in 5.0 mi North 4.6 mph - N/A   Clear
10:53 PM 35.6 °F 31.7 °F 33.8 °F 93% 29.96 in 5.0 mi North 4.6 mph - N/A   Clear
11:13 PM 35.6 °F 31.7 °F 33.8 °F 93% 29.95 in 5.0 mi North 4.6 mph - N/A   Clear
11:33 PM 35.6 °F 30.7 °F 33.8 °F 93% 29.96 in 5.0 mi NNW 5.8 mph - N/A   Clear
11:53 PM 35.6 °F 29.9 °F 32.0 °F 87% 29.95 in 5.0 mi North 6.9 mph - N/A   Clear